Starlink 1191

operational
NORAD ID: 45222 Int'l Des: 2020-012 Owner: SPXS Country: US Constellation: starlink
LEOCIRCULARSTARLINK_TYPE

Starlink 1191について

説明を読み込み中...

リアルタイム位置

3D地球を読み込み中...

次回通過

高度履歴

Altitude vs Time

uPlot chart will show altitude changes over time

軌道要素

1 45222U 20012AW 25353.25010769 -.00000271 00000-0 70415-6 0 9992
2 45222 53.0552 7.7256 0001354 85.4489 274.6654 15.06399234323278
Epoch: Dec 19, 2025 • Age: 10 hours

現在のステータス

高度 551.3 km
速度 7.59 km/s
衛星直下点 46.43°N, 91.59°E
打ち上げ日 Feb 17, 2020
運用期間 5.8 years
タイプ internet

技術仕様

分類 Payload
質量 260.00 kg
乾燥質量 248.00 kg
総質量 260.00 kg
長さ 0.20 m
直径 2.80 m
スパン 9.00 m
形状 Box + pan
製造者 SPXS
バスタイプ Starlink
フェーズステータス In Orbit
所有者/国 SPXS/US

大規模コンステレーション

Loading constellations...